Home   Weather   Bad Vilbel   Past weeks

Flag for Germany Past Weather in Bad Vilbel, Hesse, Germany — Yesterday and Last 2 Weeks

54 °F

Passing clouds.

Feels Like: 51 °F
Forecast: 41 / 53 °F
Wind: 8 mph from Northeast

Location: Frankfurt-M-Flughafen Airport

Current Time: Oct 25, 2016 at 9:13:12 PM

Latest Report: Oct 25, 2016 at 8:50 PM

Visibility: N/A

Pressure: 30.27 "Hg

Humidity: 77%

Dew Point: 46 °F

Location of Bad VilbelLocation

Past Weather in Bad Vilbel — Graph


Bad Vilbel Temperature Yesterday

Maximum temperature yesterday: 52 °F (at 3:20 PM)
Minimum temperature yesterday: 46 °F (at 3:50 AM)
Average temperature yesterday: 50 °F

High & Low Weather Summary for the Past Weeks

High64 °F (Oct 16, 3:50 PM)100% (Oct 15, 5:20 AM)30.27 "Hg (Oct 15, 5:20 AM)
Low39 °F (Oct 13, 2:20 AM)51% (Oct 11, 1:50 PM)29.65 "Hg (Oct 14, 7:20 PM)
Average49 °F86%30.01 "Hg
* Reported Oct 10 7:20 PM — Oct 25 7:50 PM, Bad Vilbel, Weather by CustomWeather, © 2016

Note: Actual official high and low records may vary slightly from our data, if they occured in-between our weather recording intervals... More about our weather records


Bad Vilbel Weather History for the Previous 24 Hours

Scroll right to see more
Time TempWeatherWind HumidityBarometerVisibility
7:50 PM
Tue, Oct 25
54 °FPassing clouds.5 mph82%30.24 "HgN/A
7:20 PM54 °FPassing clouds.5 mph82%30.27 "HgN/A
6:50 PM54 °FPassing clouds.6 mph82%30.24 "HgN/A
6:20 PM55 °FPassing clouds.6 mph77%30.24 "HgN/A
5:50 PM55 °FPartly sunny.8 mph77%30.21 "HgN/A
5:20 PM57 °FPartly sunny.7 mph77%30.21 "HgN/A
4:50 PM57 °FPartly sunny.5 mph72%30.21 "HgN/A
4:20 PM57 °FPartly sunny.3 mph82%30.21 "HgN/A
3:50 PM57 °FPartly sunny.5 mph77%30.21 "HgN/A
3:20 PM57 °FBroken clouds.5 mph77%30.18 "HgN/A
2:50 PM55 °FBroken clouds.3 mph88%30.18 "HgN/A
2:20 PM55 °FBroken clouds.5 mph82%30.18 "HgN/A
1:50 PM57 °FBroken clouds.5 mph77%30.18 "HgN/A
1:20 PM55 °FPartly sunny.3 mph88%30.18 "HgN/A
12:50 PM55 °FBroken clouds.5 mph82%30.18 "HgN/A
12:20 PM55 °FScattered clouds.7 mph82%30.18 "HgN/A
11:50 AM57 °FBroken clouds.8 mph88%30.18 "HgN/A
11:20 AM55 °FPartly sunny.7 mph88%30.15 "HgN/A
10:50 AM54 °FPartly sunny.6 mph94%30.18 "HgN/A
10:20 AM54 °FPartly sunny.2 mph94%30.15 "HgN/A
9:50 AM52 °FPartly sunny.5 mph100%30.15 "HgN/A
9:20 AM52 °FPartly sunny.5 mph94%30.15 "HgN/A
8:50 AM52 °FBroken clouds.2 mph94%30.12 "HgN/A
8:20 AM50 °FPartly sunny.5 mph100%30.12 "HgN/A
7:50 AM50 °FPartly cloudy.5 mph100%30.09 "HgN/A
7:20 AM52 °FPartly cloudy.6 mph94%30.09 "Hg4 mi
6:50 AM52 °FFog.5 mph94%30.07 "Hg3 mi
6:20 AM52 °FFog.3 mph94%30.07 "Hg2 mi
5:50 AM52 °FFog.5 mph94%30.04 "Hg2 mi
5:20 AM52 °FPartly cloudy.2 mph94%30.04 "Hg5 mi
4:50 AM52 °FLight rain. Partly cloudy.2 mph94%30.04 "Hg4 mi
4:20 AM52 °FLight rain. Fog.2 mph94%30.04 "Hg2 mi
3:50 AM52 °FRain. Fog.3 mph94%30.04 "Hg3 mi
3:20 AM52 °FLight rain. Fog.No wind94%30.01 "Hg3 mi
2:50 AM52 °FLight rain. Partly cloudy.2 mph94%30.01 "Hg4 mi
2:20 AM52 °FLight rain. Partly cloudy.1 mph94%30.01 "Hg4 mi
1:20 AM52 °FLight rain. Partly cloudy.2 mph100%29.98 "HgN/A
12:50 AM52 °FPartly cloudy.2 mph94%29.98 "HgN/A
12:20 AM52 °FLight rain. Partly cloudy.3 mph100%29.98 "Hg6 mi
11:50 PM
Mon, Oct 24
52 °FLight rain. Passing clouds.2 mph100%29.98 "HgN/A
11:20 PM52 °FLight rain. Passing clouds.No wind100%29.98 "HgN/A
10:50 PM52 °FLight rain. Partly cloudy.2 mph94%29.98 "HgN/A
10:20 PM52 °FLight rain. Passing clouds.3 mph94%29.95 "HgN/A
9:50 PM52 °FLight rain. Passing clouds.5 mph94%29.95 "HgN/A
9:20 PM52 °FLight rain. Partly cloudy.2 mph94%29.95 "HgN/A
Weather by CustomWeather, © 2016

See weather overviewHow to use our weather pages